{"data":{"norad_id":64015,"epoch":"2026-09-20T06:07:10.462080Z","epoch_age_seconds":164709,"freshness":"FRESH","line1":"1 64015U 25101X   26263.25498220  .00009807  00000+0  36538-3 0  9997","line2":"2 64015  43.0006 338.9677 0001368 278.5069  81.5627 15.27585713 76814","mean_motion":15.27585713,"eccentricity":0.0001368,"inclination_deg":43.0006,"raan_deg":338.9677,"arg_perigee_deg":278.5069,"mean_anomaly_deg":81.5627,"bstar":0.00036538,"rev_number":7681,"period_min":94.266396166537,"perigee_km":482.09338139799,"apogee_km":483.97059723347,"semimajor_km":6861.1689893157,"source":"CELESTRAK","updated_at":"2026-09-21T09:00:35.184198Z"}}